Tracking 29892 objects as of 21-Nov-2024
HD Live streaming from Space Station
objects crossing your sky now

STARLINK-31268

Track STARLINK-31268 now!
10-day predictions
STARLINK-31268 is classified as:


NORAD ID: 59245
Int'l Code: 2024-049Q
Perigee: 450.4 km
Apogee: 452.0 km
Inclination: 43.0 °
Period: 93.5 minutes
Semi major axis: 6822 km
RCS: Unknown
Launch date: March 16, 2024
Source: United States (US)
Launch site: AIR FORCE EASTERN TEST RANGE (AFETR)
Your satellite tracking list
Your tracking list is empty




NASA's NSSDC Master Catalog

Two Line Element Set (TLE):
1 59245U 24049Q   24325.95000566  .00000851  00000-0  27630-4 0  9997
2 59245  43.0006 304.0916 0001183 283.8389  76.2336 15.40697026 39871
Source of the keplerian elements: AFSPC